TimeEST,TemperatureF,Dew PointF,Humidity,Sea Level PressureIn,VisibilityMPH,Wind Direction,Wind SpeedMPH,Gust SpeedMPH,PrecipitationIn,Events,Conditions,WindDirDegrees,DateUTC
12:53 AM,18.0,10.9,74,30.15,10.0,WNW,6.9,-,N/A,,Clear,300,2012-12-12 05:53:00
1:53 AM,18.0,10.0,71,30.17,10.0,WNW,8.1,-,N/A,,Clear,300,2012-12-12 06:53:00
2:53 AM,18.0,10.0,71,30.20,10.0,WNW,9.2,-,N/A,,Clear,290,2012-12-12 07:53:00
3:53 AM,18.0,10.9,74,30.21,10.0,NW,6.9,-,N/A,,Clear,310,2012-12-12 08:53:00
4:53 AM,18.0,10.9,74,30.23,10.0,West,4.6,-,N/A,,Clear,280,2012-12-12 09:53:00
5:53 AM,18.0,10.9,74,30.25,10.0,Variable,5.8,-,N/A,,Clear,0,2012-12-12 10:53:00
6:53 AM,18.0,10.9,74,30.28,10.0,NW,8.1,-,N/A,,Clear,310,2012-12-12 11:53:00
7:53 AM,19.0,10.9,71,30.29,10.0,Variable,3.5,-,N/A,,Clear,0,2012-12-12 12:53:00
8:53 AM,19.9,12.9,74,30.32,9.0,Variable,3.5,-,N/A,,Clear,0,2012-12-12 13:53:00
9:53 AM,24.1,12.9,62,30.33,10.0,Variable,4.6,-,N/A,,Clear,0,2012-12-12 14:53:00
10:53 AM,26.1,14.0,60,30.30,10.0,West,5.8,-,N/A,,Clear,280,2012-12-12 15:53:00
11:53 AM,28.0,15.1,58,30.30,10.0,West,4.6,-,N/A,,Clear,280,2012-12-12 16:53:00
12:53 PM,30.0,16.0,56,30.29,10.0,Variable,6.9,-,N/A,,Clear,0,2012-12-12 17:53:00
1:53 PM,30.0,16.0,56,30.30,8.0,WNW,4.6,-,N/A,,Clear,290,2012-12-12 18:53:00
2:53 PM,28.9,17.1,61,30.30,10.0,Calm,Calm,-,N/A,,Clear,0,2012-12-12 19:53:00
3:53 PM,25.0,19.0,78,30.34,10.0,Calm,Calm,-,N/A,,Clear,0,2012-12-12 20:53:00
4:53 PM,21.9,18.0,85,30.36,10.0,Calm,Calm,-,N/A,,Clear,0,2012-12-12 21:53:00
5:53 PM,19.9,16.0,85,30.36,10.0,Calm,Calm,-,N/A,,Clear,0,2012-12-12 22:53:00
6:53 PM,18.0,15.1,88,30.37,10.0,Calm,Calm,-,N/A,,Mostly Cloudy,0,2012-12-12 23:53:00
7:53 PM,17.1,14.0,88,30.38,10.0,Calm,Calm,-,N/A,,Mostly Cloudy,0,2012-12-13 00:53:00
8:53 PM,16.0,12.9,88,30.38,4.0,Calm,Calm,-,N/A,,Scattered Clouds,0,2012-12-13 01:53:00
9:53 PM,15.1,12.0,88,30.39,8.0,Calm,Calm,-,N/A,,Clear,0,2012-12-13 02:53:00
10:53 PM,12.0,9.0,88,30.39,10.0,East,3.5,-,N/A,,Partly Cloudy,100,2012-12-13 03:53:00
11:53 PM,12.0,9.0,88,30.38,10.0,Calm,Calm,-,N/A,,Partly Cloudy,0,2012-12-13 04:53:00